Location: Kumla
(59.1265°N, 15.1401°E)
Time: 15:31:50
(UTC+01:00)

Transit 2A - Pass Details

Date: 06 December 2023
Orbit: 600 x 953 km, 66.7° (Epoch: 21 February)

Event Time Altitude Azimuth Distance (km) Brightness Sun altitude
Rises 18:51:57 0° 275° (W) 3,011 10.4 -27.0°
Reaches altitude 10° 18:54:31 10° 285° (WNW) 2,052 9.2 -27.4°
Enters shadow 18:58:09 32° 335° (NNW) 1,083 6.9 -27.8°
Maximum altitude 18:58:40 33° 350° (N) 1,057 - -27.9°
Drops below altitude 10° 19:02:39 10° 55° (NE) 1,962 - -28.4°
Sets 19:05:03 0° 65° (ENE) 2,858 - -28.7°
